{"data":{"norad_id":44793,"epoch":"2026-05-24T10:56:34.065312Z","epoch_age_seconds":112121,"freshness":"FRESH","line1":"1 44793U 19078A   26144.45594983 -.00000084  00000+0  00000+0 0  9997","line2":"2 44793  53.9590 300.6620 0006956  49.8276 310.2109  1.86227016 44208","mean_motion":1.86227016,"eccentricity":0.0006956,"inclination_deg":53.959,"raan_deg":300.662,"arg_perigee_deg":49.8276,"mean_anomaly_deg":310.2109,"bstar":0,"rev_number":4420,"period_min":773.24978455328,"perigee_km":21509.037743452,"apogee_km":21547.861386682,"semimajor_km":27906.586565067,"source":"CELESTRAK","updated_at":"2026-05-25T13:38:24.222719Z"}}